TimeEST,TemperatureF,Dew PointF,Humidity,Sea Level PressureIn,VisibilityMPH,Wind Direction,Wind SpeedMPH,Gust SpeedMPH,PrecipitationIn,Events,Conditions,WindDirDegrees,DateUTC
12:53 AM,66.9,64.0,90,29.79,10.0,South,9.2,-,N/A,,Clear,190,2012-12-11 05:53:00
1:53 AM,69.1,66.0,90,29.80,10.0,SSW,8.1,-,N/A,,Partly Cloudy,210,2012-12-11 06:53:00
2:53 AM,69.1,66.0,90,29.79,10.0,SSW,6.9,-,N/A,,Partly Cloudy,210,2012-12-11 07:53:00
3:13 AM,69.8,66.2,88,29.80,10.0,SSW,9.2,-,N/A,,Mostly Cloudy,210,2012-12-11 08:13:00
3:53 AM,71.1,66.9,87,29.80,10.0,SSW,11.5,20.7,N/A,,Overcast,210,2012-12-11 08:53:00
4:31 AM,69.8,66.2,88,29.80,10.0,SW,10.4,-,N/A,,Scattered Clouds,220,2012-12-11 09:31:00
4:53 AM,69.1,64.9,87,29.80,10.0,SW,6.9,-,N/A,,Partly Cloudy,220,2012-12-11 09:53:00
5:53 AM,66.9,64.0,90,29.82,10.0,SW,5.8,-,N/A,,Clear,220,2012-12-11 10:53:00
6:53 AM,66.0,64.0,93,29.85,10.0,SW,5.8,-,N/A,,Clear,220,2012-12-11 11:53:00
7:53 AM,66.0,63.0,90,29.88,9.0,SW,8.1,-,N/A,,Clear,230,2012-12-11 12:53:00
8:53 AM,68.0,63.0,84,29.91,10.0,West,9.2,-,N/A,,Partly Cloudy,260,2012-12-11 13:53:00
9:53 AM,70.0,62.1,76,29.93,10.0,West,10.4,-,N/A,,Partly Cloudy,270,2012-12-11 14:53:00
10:53 AM,73.0,61.0,66,29.93,10.0,West,15.0,-,N/A,,Mostly Cloudy,270,2012-12-11 15:53:00
11:23 AM,71.6,60.8,69,29.94,10.0,WNW,12.7,-,N/A,,Scattered Clouds,290,2012-12-11 16:23:00
11:31 AM,69.8,60.8,73,29.94,10.0,WNW,12.7,-,N/A,,Mostly Cloudy,300,2012-12-11 16:31:00
11:53 AM,69.1,60.1,73,29.94,10.0,West,10.4,-,N/A,,Overcast,280,2012-12-11 16:53:00
12:53 PM,71.1,59.0,66,29.93,10.0,WNW,6.9,-,N/A,,Mostly Cloudy,300,2012-12-11 17:53:00
1:03 PM,71.6,59.0,64,29.93,10.0,West,10.4,-,N/A,,Mostly Cloudy,270,2012-12-11 18:03:00
1:53 PM,69.1,57.9,68,29.93,10.0,WNW,4.6,-,N/A,,Overcast,300,2012-12-11 18:53:00
2:53 PM,69.1,57.9,68,29.94,10.0,West,3.5,-,N/A,,Overcast,280,2012-12-11 19:53:00
3:53 PM,68.0,57.9,70,29.96,10.0,Calm,Calm,-,N/A,,Overcast,0,2012-12-11 20:53:00
4:53 PM,66.0,60.1,81,29.98,10.0,Calm,Calm,-,N/A,,Overcast,0,2012-12-11 21:53:00
5:53 PM,64.0,61.0,90,30.00,7.0,Calm,Calm,-,0.02,Rain,Light Rain,0,2012-12-11 22:53:00
6:53 PM,63.0,61.0,93,30.01,6.0,NNE,3.5,-,0.01,Rain,Light Rain,30,2012-12-11 23:53:00
7:53 PM,63.0,62.1,97,30.04,4.0,Calm,Calm,-,0.00,,Overcast,0,2012-12-12 00:53:00
8:53 PM,63.0,61.0,93,30.04,5.0,NW,3.5,-,N/A,,Overcast,320,2012-12-12 01:53:00
9:07 PM,62.6,60.8,94,30.04,5.0,NNW,3.5,-,N/A,,Overcast,330,2012-12-12 02:07:00
9:53 PM,63.0,61.0,93,30.06,5.0,Calm,Calm,-,N/A,,Overcast,0,2012-12-12 02:53:00
10:00 PM,62.6,60.8,94,30.06,5.0,Calm,Calm,-,N/A,,Overcast,0,2012-12-12 03:00:00
10:09 PM,62.6,60.8,94,30.07,6.0,Calm,Calm,-,0.00,Rain,Light Rain,0,2012-12-12 03:09:00
10:20 PM,64.4,60.8,88,30.06,4.0,Calm,Calm,-,0.00,Rain,Light Rain,0,2012-12-12 03:20:00
10:40 PM,62.6,60.8,94,30.07,4.0,ENE,3.5,-,0.00,,Overcast,60,2012-12-12 03:40:00
10:49 PM,60.8,57.2,88,30.07,6.0,East,10.4,-,0.00,,Overcast,80,2012-12-12 03:49:00
10:53 PM,60.1,57.0,90,30.08,7.0,East,10.4,-,0.00,,Overcast,80,2012-12-12 03:53:00
11:53 PM,57.9,55.0,90,30.09,9.0,East,6.9,-,N/A,,Overcast,80,2012-12-12 04:53:00